Location: Monroe
(41.9160°N, 83.3980°W)
Time: 09:27:53
(UTC-04:00)

Daily predictions for brighter satellites

Satellite Brightness Start Highest point End
(mag) Time Altitude Azimuth Time Altitude Azimuth Time Altitude Azimuth
ATLAS CENTAUR R/B 3.5 19:26:04 10° SSW 19:30:34 60° ESE 19:44:12 10° NE
OAO 3 Rocket 4.2 19:37:12 10° WSW 19:41:30 35° S 19:45:51 10° ESE
Cosmos 1758 4.0 19:40:28 10° SSE 19:44:10 35° E 19:47:56 10° NNE
Cosmos 1464 Rocket 4.0 19:38:56 10° S 19:45:03 61° E 19:51:07 10° NNE
Cosmos 2034 Rocket 4.3 19:39:23 10° SSE 19:45:18 46° E 19:51:18 10° NNE
SL-16 R/B 2.7 19:42:46 10° SSW 19:48:25 69° WNW 19:54:07 10° NNE
Cosmos 1378 3.2 19:45:08 10° N 19:48:52 86° W 19:52:36 10° S
Cosmos 1408 Rocket 3.6 19:45:14 10° N 19:49:31 55° E 19:53:44 10° SSE
SKYMED 2 3.7 19:46:04 10° NNE 19:50:27 85° WNW 19:54:47 10° SSW
Meteor 1-21 Rocket 4.4 19:49:41 10° N 19:55:02 46° ENE 20:00:20 10° SSE
Cosmos 1766 3.6 19:52:36 10° SSW 19:56:34 72° W 20:00:34 10° N
CZ-4C R/B 4.2 19:55:48 10° W 20:00:28 27° NW 20:05:40 10° NNE
Spot 1 4.5 19:56:09 10° SE 20:00:34 45° ENE 20:04:47 10° N
Helios 1A 3.7 19:57:16 10° SE 20:01:02 33° ENE 20:04:50 10° N
IDEFIX/ARIANE 42P 4.4 19:57:28 10° SSW 20:02:14 36° W 20:07:03 10° NNW
NOSS 3-2 (A) 4.1 19:59:43 10° SW 20:05:44 59° NW 20:12:20 10° NNE
Meteor 1-28 Rocket 3.1 20:04:10 10° NNE 20:07:53 69° E 20:11:35 10° S
Meteor 1-29 3.9 20:06:28 10° NE 20:09:31 27° E 20:12:31 10° SSE
GPS 2-04 Rocket1 3.8 20:10:17 10° SW 20:13:10 24° S 20:15:05 16° SE
NOAA 12 4.1 20:11:35 10° SSE 20:16:50 89° WSW 20:22:10 10° NNW
ASTEX 1 4.1 20:13:14 10° NNE 20:17:36 31° E 20:21:56 10° SSE
SAR-Lupe-1 4.4 20:14:36 10° S 20:18:08 66° WSW 20:21:41 10° NNW
H-2A R/B 4.0 20:17:06 19° E 20:18:28 23° ENE 20:21:32 10° NNE
Cosmos 1943 Rocket 3.6 20:15:09 10° N 20:19:07 19° NE 20:21:11 16° ENE
Cosmos 1743 Rocket 3.6 20:15:57 10° N 20:20:20 56° E 20:24:39 10° SSE
Cosmos 1452 Rocket 4.0 20:15:07 10° NNW 20:20:20 65° WSW 20:25:31 10° S
Resurs 1-3 3.8 20:17:24 10° SSE 20:21:37 49° ENE 20:25:53 10° N
Cosmos 1805 3.3 20:18:15 10° S 20:22:10 82° W 20:26:08 10° N
ALOS 2.7 20:20:16 10° SE 20:24:35 39° ENE 20:28:56 10° N
Cosmos 2369 Rocket 2.6 20:21:43 10° NNW 20:27:08 44° ENE 20:31:02 18° SE
Cosmos 1943 3.5 20:23:42 10° S 20:28:57 43° ESE 20:34:14 10° NE
Helios 1B rocket 2.3 20:25:37 10° NNE 20:29:43 65° ESE 20:33:47 10° S
Resurs 01 Rocket 1.5 20:25:17 10° SSE 20:29:43 79° ENE 20:34:11 10° N
SL-8 R/B 3.6 20:26:04 10° WSW 20:30:52 89° SSE 20:34:18 19° ENE
CENTAUR R/B 2.6 20:25:25 10° S 20:31:11 51° ESE 20:37:39 10° NE
Gbstr 26 Del rocket 3.4 20:28:48 10° SSW 20:33:02 53° SE 20:36:27 20° ENE
Cosmos 1953 3.1 20:31:57 10° SSW 20:35:50 54° W 20:39:45 10° N
Cosmos 1603 4.0 20:30:29 10° SSW 20:36:12 74° WNW 20:41:59 10° NNE
ISS -3.4 20:33:04 10° WSW 20:36:18 84° NW 20:37:47 30° NE
BREEZE-M DEB (TANK) 4.1 20:22:56 10° W 20:38:34 66° N 20:41:39 24° ENE
Cosmos 1420 Rocket 4.1 20:34:12 10° NNW 20:39:31 79° WSW 20:44:50 10° SSE
Cosmos 1733 3.3 20:36:47 10° S 20:40:31 49° E 20:44:16 10° NNE
ERBS 4.1 20:41:37 10° NNW 20:44:19 20° NNE 20:44:31 20° NE
Cosmos 1470 2.6 20:43:48 10° S 20:47:40 76° E 20:51:33 10° N
Nadezhda 4 Rocket 4.0 20:41:35 10° N 20:47:53 83° W 20:54:04 10° S
Cosmos 1674 2.6 20:44:14 10° N 20:48:08 88° E 20:51:28 14° S
GP-B 3.3 20:47:52 10° NNE 20:52:09 44° E 20:52:57 40° ESE
Cosmos 2058 4.1 20:49:11 10° NNE 20:51:47 26° NE 20:51:47 26° NE
Spot 2 Rocket 4.0 20:48:44 10° S 20:53:42 61° WSW 20:58:42 10° NNW
Abrixas 3.3 20:52:49 10° W 20:55:43 44° NNW 20:56:04 42° N
Cosmos 1092 Rocket 3.9 20:51:40 10° N 20:57:55 86° E 21:04:03 10° S
Cosmos 1048 Rocket 4.3 20:53:27 10° SSW 20:58:43 68° WNW 21:03:57 10° NNE
Cosmos 2151 2.9 20:57:07 10° N 21:01:17 58° E 21:01:36 56° E
ATLAS 5 CENTAUR R/B 3.8 20:58:17 10° W 21:02:29 28° NW 21:07:01 10° NNE
Envisat 4.2 21:05:37 26° NE 21:05:37 26° NE 21:09:00 10° N
Cosmos 2221 4.5 21:09:42 17° NNE 21:09:42 17° NNE 21:10:48 10° NNE
Cosmos 2142 Rocket 4.4 21:01:06 10° S 21:07:25 73° E 21:13:48 10° NNE
Cosmos 1655 Rocket 4.1 21:02:09 10° N 21:08:14 53° ENE 21:10:10 39° SE
Cosmos 2026 Rocket 3.9 21:02:50 10° N 21:08:53 59° E 21:11:21 36° SE
Cosmos 1174 4.0 21:05:46 10° SW 21:10:29 76° WNW 21:12:05 35° NNE
Cosmos 158 Rocket 3.7 21:05:38 10° SSW 21:10:30 86° WNW 21:15:25 10° NNE
Meteor 1-16 Rocket 4.0 21:06:19 10° S 21:11:32 62° E 21:16:47 10° NNE
Cosmos 1634 Rocket 3.9 21:08:10 10° S 21:14:24 86° E 21:20:39 10° N
USA 215 3.1 21:09:20 15° NE 21:15:02 86° SE 21:21:34 10° SW
CZ-4B DEB 4.1 21:22:26 39° WSW 21:22:30 39° W 21:25:35 10° NNW
Meteor 1-11 4.1 21:18:01 10° N 21:23:51 76° E 21:25:15 52° SSE
ERS-1 Rocket 3.5 21:35:50 45° NNE 21:35:50 45° NNE 21:39:34 10° N
Cosmos 1110 Rocket 4.4 21:44:45 10° NNW 21:49:59 60° WSW 21:50:19 59° SW
Cosmos 1943 Rocket 2.5 21:57:51 10° NNW 22:02:44 63° WNW 22:02:44 63° WNW
Cosmos 2251 Rocket 4.4 22:03:24 10° SW 22:08:25 46° WNW 22:13:28 10° N
Cosmos 2369 Rocket 4.0 22:06:14 10° NW 22:10:54 27° WSW 22:12:52 22° SW
CENTAUR R/B 3.9 22:16:25 10° WSW 22:22:06 35° NW 22:28:29 10° NNE
USA 215 4.4 22:56:44 35° N 22:57:37 37° NNW 23:03:28 10° W
